Wind_Speed
7 6 6 8 9 9 8 6 5 4 6 8 8 10 4 1 2 4 3 3 3 2 1 3 3 5 6 8 8 10 10 8 8 5 2 5 2 7 12 15 21 21 22 22 21 22 22 23 26 27 28 29 30 30 30 30 30 30 29 28 27 26 26 25 26 26 25 22 20 20 21 22 21 19 17 16 15 15 15 14 15 16 16 15 14 15 15 14 14 14 13 14 14 15 15 14 14
6 7 7 9 10 9 5 5 6 5 7 8 9 9 2 5 1 5 3 1 3 4 2 5 6 7 9 9 9 9 6 4 9 6 5 8 7 9 14 18 20 21 23 23 22 22 20 21 26 28 29 30 30 30 30 31 31 30 29 28 27 27 27 26 26 26 23 21 20 21 22 22 20 19 18 16 15 15 15 14 15 16 15 15 14 14 14 13 13 12 12 13 13 14 14 13 12
7 8 8 9 9 8 4 5 7 7 7 7 7 2 3 1 1 1 2 3 5 5 5 6 7 7 8 9 6 8 1 6 9 7 6 8 8 10 16 19 20 22 23 23 22 22 21 22 27 29 30 30 30 31 31 31 31 30 29 28 27 27 27 27 26 23 21 21 21 22 22 22 20 20 19 18 17 15 15 15 15 15 15 15 14 14 13 12 12 12 11 11 12 12 13 13 13
7 9 10 8 7 6 5 5 7 8 7 7 4 4 3 2 3 4 3 4 5 6 7 6 6 3 6 6 1 3 1 7 7 5 5 6 8 14 18 19 21 23 22 23 22 22 21 24 28 29 30 30 31 31 31 31 30 30 29 28 27 27 27 26 23 22 21 21 21 20 21 21 20 19 19 18 17 16 15 15 16 15 15 14 14 13 12 12 11 11 10 10 10 11 11 12 13
7 10 11 9 5 3 4 6 6 7 7 7 3 6 3 1 4 2 2 3 4 7 6 6 6 2 5 5 3 1 3 4 6 5 5 7 10 18 20 20 21 22 22 23 24 22 20 25 29 29 30 30 31 32 31 31 30 30 29 28 28 28 27 24 22 21 21 21 20 19 20 21 20 18 18 17 17 18 17 16 17 16 15 14 14 13 12 11 10 10 9 9 9 9 10 11 12
9 9 10 10 6 4 5 6 7 8 9 9 5 5 3 2 4 3 4 4 5 6 5 6 7 3 4 2 5 4 6 1 3 5 7 9 13 20 21 21 21 21 21 22 24 22 21 26 29 29 30 31 31 32 31 30 30 30 29 29 28 28 26 23 22 21 20 20 19 20 21 21 19 18 17 17 17 18 16 17 17 16 15 14 14 13 12 10 10 9 8 8 8 8 8 9 11
9 7 7 7 5 4 6 7 7 8 4 4 7 4 5 4 5 4 6 4 3 4 6 6 6 6 2 6 5 7 7 2 2 6 9 12 17 21 21 21 21 21 21 22 23 22 23 28 29 29 30 30 32 31 31 30 29 29 29 29 27 26 24 22 21 21 21 20 21 22 22 19 17 18 18 18 18 17 16 17 17 16 15 14 14 13 11 10 10 9 8 8 8 8 8 8 9
10 6 4 6 5 5 7 8 8 7 2 2 4 5 5 5 5 6 5 3 2 2 5 5 6 7 3 6 3 7 6 3 3 9 12 16 20 20 21 21 22 22 21 22 22 23 26 29 30 29 30 30 31 31 30 29 28 29 28 27 25 24 22 21 21 21 22 21 21 21 20 17 17 19 19 18 18 16 16 18 17 15 15 14 13 12 10 10 9 9 8 8 8 8 8 8 8
10 7 4 6 7 5 7 8 8 8 3 1 2 3 2 4 5 6 6 5 4 4 6 6 6 8 4 7 5 7 5 4 7 12 15 18 21 20 21 21 23 23 22 21 22 24 25 28 30 29 30 29 29 29 29 28 28 28 26 26 25 23 21 20 21 21 22 22 21 20 19 18 18 20 19 19 18 16 17 19 17 15 14 13 13 11 11 9 9 9 8 8 7 7 7 8 8
8 6 5 5 7 6 7 8 7 5 2 1 2 3 2 3 5 5 7 7 4 5 6 3 6 10 4 6 5 4 4 8 11 13 16 19 20 20 21 22 23 24 23 22 23 24 24 27 29 29 29 27 27 28 27 28 27 26 25 25 25 23 22 22 22 23 23 23 23 21 20 18 19 19 19 19 18 17 17 18 17 15 14 13 13 12 10 9 9 9 8 7 7 7 8 9 9
6 6 5 5 7 7 7 7 6 4 3 2 2 3 2 3 5 5 6 7 5 5 4 4 7 11 5 6 5 4 5 9 13 14 17 19 20 20 21 22 23 23 23 22 23 23 23 25 27 28 27 25 25 26 26 27 26 26 26 26 25 24 24 24 23 23 23 24 24 22 21 19 18 18 19 19 18 18 17 18 16 14 14 13 13 12 10 9 9 8 7 7 6 8 9 10 10
6 5 5 6 6 7 6 5 3 3 3 4 4 4 2 4 4 5 6 7 5 6 5 6 3 6 8 8 6 4 7 9 12 13 17 19 19 21 22 23 23 23 23 23 22 22 24 24 25 26 25 24 24 25 27 27 27 26 27 27 26 25 24 23 22 22 22 23 23 22 21 19 18 18 18 18 18 18 17 17 16 14 14 13 12 11 10 9 9 8 7 7 7 9 10 10 10
7 5 6 6 6 7 6 6 2 1 2 4 5 4 3 3 4 6 6 8 6 5 3 3 3 4 5 8 8 5 7 9 11 12 16 17 17 20 20 22 23 23 23 23 23 23 25 25 23 24 24 24 24 26 27 27 27 26 27 26 25 24 23 22 21 22 22 22 22 21 20 18 18 18 16 16 16 17 16 16 15 15 13 13 12 11 9 9 8 8 7 7 7 9 9 9 10
7 5 6 6 7 8 6 6 3 4 3 6 6 3 3 2 3 6 6 8 5 3 3 3 6 5 3 6 6 4 7 10 10 12 14 13 13 15 14 16 19 21 22 22 24 25 25 25 24 23 24 24 24 26 27 27 27 26 27 25 24 23 22 22 22 22 22 21 20 20 19 17 17 17 15 14 15 16 16 15 15 15 13 12 12 11 10 9 9 8 7 6 7 9 9 9 9
7 5 5 6 7 8 6 6 4 5 3 8 4 2 4 2 2 6 4 6 3 2 5 2 5 6 1 4 3 4 10 11 10 10 8 5 3 5 5 6 7 11 17 19 22 25 25 25 25 25 25 24 25 25 24 25 26 27 26 25 23 22 22 22 22 21 21 20 19 19 18 17 16 15 14 14 16 16 16 15 14 14 13 12 12 11 10 10 8 7 7 6 6 7 8 9 9
6 5 5 6 7 8 5 6 3 4 2 7 3 2 4 2 1 5 2 5 5 1 5 2 1 5 6 6 4 9 14 12 11 10 8 6 3 6 4 5 3 1 7 14 16 21 23 23 25 25 24 24 24 24 23 23 25 27 26 24 23 22 22 21 21 20 20 20 19 19 17 16 15 14 14 15 16 17 16 15 14 14 12 11 11 11 10 10 8 6 6 6 5 6 7 8 9
4 6 7 6 8 7 4 6 3 1 4 7 3 2 4 3 2 4 2 7 7 3 3 2 7 8 10 9 8 14 17 15 15 14 12 10 7 8 5 6 8 3 4 5 6 9 15 20 23 23 23 23 22 21 22 23 24 25 24 23 22 21 21 20 20 21 21 20 19 19 17 16 16 15 15 15 16 17 16 15 14 14 13 11 11 11 10 10 8 7 6 6 5 5 6 7 8
5 6 7 7 7 4 1 2 3 3 2 5 3 3 4 5 3 4 4 8 6 5 6 6 9 9 10 11 10 13 17 17 18 15 12 10 8 8 5 5 7 7 8 5 4 1 5 12 18 20 20 20 21 20 21 23 23 22 21 20 20 20 20 20 20 21 21 20 18 18 16 15 15 15 15 15 15 16 16 16 15 14 13 12 12 11 11 9 8 8 7 7 6 5 4 5 6
7 6 6 8 5 2 5 4 5 4 4 4 4 4 4 5 4 4 6 5 4 8 8 11 7 8 10 12 12 13 16 16 16 15 14 13 11 9 7 5 6 5 8 11 8 3 5 7 11 15 15 18 22 22 21 22 22 21 20 20 18 18 20 20 19 20 19 19 18 17 15 14 14 14 14 14 15 16 16 16 14 13 12 13 13 12 11 10 8 7 7 7 7 6 5 3 4
8 7 7 7 3 4 3 2 3 4 6 6 5 5 5 5 5 5 7 7 8 7 8 10 4 7 8 9 12 14 15 15 13 13 15 14 12 11 9 8 8 6 7 12 10 7 8 6 11 16 15 19 22 22 22 22 22 20 19 19 18 19 19 19 18 18 18 18 18 17 16 16 14 12 14 15 15 16 15 14 14 12 11 11 13 13 12 10 8 7 7 7 8 8 6 5 5
7 7 10 4 5 3 1 2 3 3 6 7 6 5 7 5 5 7 7 8 7 2 6 8 7 8 7 8 10 12 13 13 13 12 14 13 12 12 11 10 11 11 11 14 13 15 15 6 12 18 16 21 22 20 21 21 21 18 17 18 18 19 19 17 17 16 17 18 16 16 16 15 14 12 15 16 15 16 15 14 13 11 10 10 11 12 11 10 9 8 7 7 8 8 7 6 7
7 8 12 8 5 4 1 1 2 4 6 7 7 7 6 6 6 8 7 9 4 6 4 6 10 11 10 10 9 11 11 12 13 12 12 12 11 11 12 12 12 14 15 20 22 26 25 13 15 20 18 23 24 22 20 20 20 17 16 17 16 16 16 15 16 16 17 17 15 15 15 13 13 13 15 15 14 15 15 14 12 11 11 10 12 12 10 11 10 9 9 8 8 7 6 6 8
8 8 10 9 7 7 2 3 4 5 7 8 7 7 7 6 8 6 6 8 6 8 3 4 10 11 9 11 11 12 12 11 11 11 12 11 11 11 13 12 11 12 14 22 27 29 34 28 22 21 21 23 24 23 19 17 18 15 15 16 15 14 14 15 15 16 17 16 15 15 15 15 16 16 16 15 14 14 13 12 11 11 11 11 12 11 10 11 11 10 9 9 8 7 7 7 8
10 8 7 6 6 8 7 6 6 7 8 8 8 8 7 9 8 4 6 6 5 4 1 5 10 12 11 13 12 12 11 11 11 11 12 11 11 11 10 10 10 11 12 18 20 20 29 36 33 26 23 24 22 22 18 16 15 12 14 14 14 14 15 16 14 15 16 15 14 15 16 16 16 16 16 15 13 13 12 11 11 11 10 10 10 10 10 10 9 8 7 7 8 8 9 8 9
12 11 8 5 5 7 7 7 8 8 7 7 9 10 9 9 8 7 8 3 3 1 2 7 9 11 11 11 12 12 10 11 11 11 11 10 10 10 8 8 10 12 15 17 19 20 21 26 33 28 23 22 17 18 18 14 12 12 15 14 13 15 16 16 14 15 16 15 14 14 14 13 14 15 15 14 13 12 11 10 10 10 10 10 9 9 9 9 8 7 7 7 7 8 8 9 10
9 12 10 8 8 7 7 9 9 8 7 7 9 10 9 8 8 9 7 1 3 2 4 8 9 9 8 10 11 11 11 11 11 11 10 9 10 9 9 8 10 14 18 21 23 28 28 25 28 26 23 20 16 18 18 14 11 12 15 12 13 15 14 13 14 15 16 17 17 14 13 13 12 13 13 13 12 12 11 10 10 9 9 9 9 8 8 8 8 8 8 8 8 9 8 8 9
2 8 10 10 11 8 8 9 8 9 8 8 10 10 9 8 7 7 5 3 1 5 6 8 9 8 9 10 11 10 11 12 11 11 9 10 11 10 10 8 10 14 15 19 16 17 28 32 30 27 25 23 21 22 21 18 15 12 12 11 14 16 13 12 13 14 15 15 16 14 16 16 12 12 12 12 12 12 12 10 10 9 8 8 7 7 8 8 8 8 8 7 7 8 7 7 7
3 5 7 10 12 10 10 10 9 9 7 9 10 10 10 8 10 9 6 5 5 6 7 9 9 8 10 10 10 8 9 11 11 10 8 9 10 10 10 9 11 13 10 12 11 9 22 32 33 31 27 26 26 25 24 22 19 15 12 12 16 17 15 14 13 14 14 11 11 14 19 19 15 14 12 12 13 13 12 11 10 10 8 7 7 7 8 8 8 7 7 5 5 6 5 5 5
6 6 9 11 12 12 13 11 9 9 7 5 5 9 11 10 14 13 9 7 7 7 7 8 9 8 8 8 8 6 8 11 10 8 8 8 9 10 10 9 10 12 10 9 9 12 21 27 30 31 29 26 25 25 27 24 21 19 14 13 15 15 15 15 13 11 12 13 14 16 19 18 15 14 13 13 13 13 13 12 11 9 9 8 7 7 7 7 7 6 7 5 5 5 4 4 4
7 9 9 9 10 11 13 11 8 9 6 2 4 8 9 13 19 14 11 9 9 8 8 9 9 8 9 8 8 8 9 10 9 8 8 8 9 10 10 10 10 12 13 10 10 12 15 20 23 24 26 25 24 25 26 24 23 20 15 13 14 14 14 14 12 10 9 12 16 17 17 18 14 12 15 15 13 13 14 11 11 10 9 9 8 8 7 6 7 7 7 7 6 6 4 4 4
8 9 8 7 8 6 11 10 7 8 5 6 8 7 8 13 17 13 10 10 10 9 9 10 9 8 9 9 9 9 9 9 8 6 8 11 11 11 10 11 12 12 14 13 12 12 11 15 16 17 21 20 21 22 20 20 22 19 14 13 15 15 13 12 11 10 9 10 14 16 16 16 12 11 14 15 14 14 14 11 11 10 10 9 8 7 6 6 6 6 7 7 6 6 5 4 4
8 8 7 8 7 4 12 9 8 7 4 8 10 6 9 7 12 13 10 10 10 9 9 9 9 9 8 8 10 10 9 8 7 6 10 14 11 10 10 11 12 12 15 15 15 15 14 14 14 16 18 17 17 16 15 16 20 18 13 13 16 17 12 10 11 11 9 9 13 15 13 14 13 12 12 12 13 13 13 13 11 11 11 9 8 8 6 6 5 5 5 5 5 6 6 5 3
7 7 7 7 8 6 8 9 9 6 2 7 9 7 9 3 13 10 8 10 10 11 11 10 9 9 8 8 8 9 10 8 6 6 11 13 9 10 11 10 11 12 15 17 18 18 16 15 15 15 16 16 15 15 15 14 16 16 12 13 17 15 11 10 12 11 9 8 12 14 13 13 13 12 11 9 11 11 12 13 11 11 11 9 8 8 6 6 5 4 3 4 5 6 5 5 3
7 7 7 6 7 5 3 8 9 7 5 8 9 8 11 5 12 10 7 10 11 12 13 12 10 9 9 9 8 8 8 8 7 8 11 12 10 11 11 11 12 13 15 16 17 18 17 15 14 13 14 14 14 16 16 13 13 13 11 13 14 12 11 10 10 10 9 10 12 14 14 13 13 10 9 10 11 11 12 12 11 11 10 9 8 7 6 6 5 5 4 4 4 4 2 5 3
7 8 8 7 6 7 6 3 7 8 7 8 8 8 12 11 5 6 8 9 11 13 11 9 11 10 9 9 8 6 7 8 8 10 13 12 11 12 12 11 12 13 14 15 16 17 16 16 14 12 12 13 13 15 15 12 12 13 12 12 12 11 12 11 9 8 10 11 12 13 14 14 12 9 8 10 12 13 13 10 10 10 9 8 8 7 7 6 6 5 4 3 2 2 2 5 4
7 6 7 8 7 8 7 2 6 4 6 8 9 9 10 13 13 9 9 8 10 12 8 7 10 9 9 8 7 7 9 8 8 12 14 13 12 12 13 12 11 13 14 15 16 16 15 16 16 14 14 13 13 14 14 14 13 13 13 13 13 11 11 11 9 8 11 12 12 12 13 14 13 10 10 12 12 11 10 9 10 9 8 8 8 7 7 7 6 5 4 4 3 2 3 4 4
7 6 4 8 8 5 5 4 4 2 5 8 9 11 12 12 14 11 8 8 10 12 11 11 11 10 9 8 8 8 9 9 12 15 14 14 14 14 13 13 13 14 14 15 16 15 15 16 17 16 16 14 14 15 15 15 13 12 13 15 13 10 11 12 10 10 11 11 13 12 12 14 13 12 13 13 10 8 8 10 10 9 8 8 8 7 6 6 7 5 5 5 4 4 4 5 5
7 8 7 8 8 9 6 5 4 4 4 8 9 11 13 12 12 12 8 9 11 14 14 13 14 13 8 6 8 7 6 7 10 13 13 14 15 15 14 13 14 14 14 14 14 14 14 16 18 18 16 14 13 14 14 12 13 14 13 14 13 10 11 12 10 11 11 11 14 15 14 16 15 14 13 11 10 8 9 10 9 7 7 8 8 8 6 6 7 6 6 5 5 4 4 5 6
8 8 8 8 7 10 6 6 5 6 4 7 10 10 12 12 12 14 12 10 11 14 15 14 15 13 10 9 10 10 9 8 8 9 11 15 16 15 13 13 12 12 13 13 12 13 13 14 18 19 16 14 12 12 13 12 15 17 14 13 12 8 9 11 9 10 12 13 15 17 17 17 16 15 13 12 12 11 10 8 8 7 7 7 7 8 8 7 7 7 6 6 6 5 4 4 5
8 8 8 8 9 10 6 5 7 7 5 7 10 9 9 10 11 13 14 11 11 14 16 16 15 13 15 15 12 12 12 11 9 7 4 8 14 15 13 12 12 11 11 11 10 10 11 14 18 17 15 14 13 14 15 14 17 18 14 12 11 9 8 10 9 10 12 14 14 16 16 15 14 13 13 13 12 11 9 7 7 7 7 7 7 7 8 8 7 8 7 5 6 6 5 5 5
9 10 10 9 11 11 5 4 4 5 8 10 10 8 7 10 12 13 13 12 12 12 14 15 15 14 14 14 13 13 13 11 10 8 3 9 12 14 14 13 13 12 11 11 12 11 11 13 16 15 15 15 14 15 15 17 19 16 12 10 9 9 9 9 8 7 10 12 14 16 15 13 12 10 10 10 9 8 8 8 8 8 8 8 7 7 7 6 6 8 8 7 6 4 3 5 6
9 11 13 13 13 11 6 7 6 6 9 10 12 9 7 11 16 15 13 13 14 12 13 15 14 14 13 12 14 12 12 10 9 9 9 13 15 13 14 13 13 13 12 11 12 12 12 13 14 15 16 17 16 14 14 17 18 14 11 11 9 9 8 8 7 7 11 14 15 16 14 12 10 9 8 8 8 8 8 8 8 8 8 8 8 7 7 6 6 7 8 8 7 4 1 3 6
8 9 12 13 11 10 10 12 10 7 8 5 9 9 6 9 12 12 12 13 13 12 14 15 13 13 14 12 13 12 11 10 9 10 13 15 16 14 13 14 14 12 13 12 11 11 12 13 15 16 17 18 16 14 14 14 13 12 11 11 9 7 6 7 8 9 12 13 13 12 11 11 10 9 9 8 8 9 9 9 8 9 9 9 9 8 7 8 7 6 6 6 4 4 3 3 5
8 4 5 8 9 11 11 12 10 8 9 4 6 9 9 9 7 7 10 12 12 14 15 14 14 13 14 14 12 16 14 12 10 9 12 14 13 13 13 13 13 12 16 18 18 18 16 14 16 15 15 16 13 13 15 13 13 14 13 11 10 9 9 10 11 11 10 9 10 10 9 10 10 9 9 9 9 9 9 9 8 8 8 8 8 8 8 8 8 6 5 4 4 4 5 4 4
7 2 2 6 8 10 10 10 9 9 10 7 9 11 8 8 8 7 10 12 13 13 12 11 11 11 11 14 11 14 12 11 10 9 11 12 12 13 13 13 13 15 18 20 20 21 20 17 16 14 14 17 16 16 17 16 16 17 16 14 14 12 11 12 11 10 10 9 9 10 9 10 10 9 9 8 8 8 8 8 8 7 7 7 6 6 7 6 7 7 5 5 5 5 5 4 3
8 3 5 6 7 9 9 9 9 8 10 10 11 11 8 8 8 8 9 10 9 7 6 5 5 7 8 10 8 11 11 8 10 11 11 11 12 13 14 14 14 16 17 17 17 20 23 20 17 16 18 21 21 20 21 20 18 17 17 16 17 16 13 12 12 11 11 10 10 10 10 10 10 9 9 8 8 8 7 7 7 7 7 6 5 5 6 6 6 6 6 6 6 6 6 4 4
6 3 6 8 8 9 8 8 8 8 9 10 14 14 10 8 5 2 1 3 2 3 4 4 3 6 7 9 8 9 11 9 10 11 11 12 13 13 14 14 15 15 16 17 17 19 22 21 21 23 23 21 19 17 19 19 16 15 16 15 17 18 15 14 15 15 13 12 11 11 10 9 9 9 9 9 8 8 7 7 7 7 7 6 5 5 5 5 5 5 5 5 5 6 6 5 5
7 5 7 8 7 7 7 7 7 8 9 10 14 16 14 10 2 2 4 5 5 3 3 3 3 5 6 7 7 7 10 10 11 10 10 12 12 13 14 15 15 16 16 17 17 19 20 19 21 26 26 22 18 16 15 15 14 13 13 13 14 15 15 14 16 16 14 13 13 11 10 10 10 9 9 9 9 8 7 7 7 7 6 5 5 5 4 4 4 5 5 5 5 6 6 6 6
10 8 8 8 7 7 7 7 7 8 9 10 12 12 11 6 2 4 4 5 4 2 1 2 4 5 4 4 5 6 9 10 11 10 10 10 10 11 14 15 16 16 16 17 18 18 18 19 21 24 26 24 21 17 15 15 15 14 13 13 14 14 13 14 15 15 14 13 12 11 10 10 10 9 9 9 8 8 7 7 6 5 5 5 4 4 3 3 3 4 4 4 5 6 6 6 6
11 9 8 9 7 7 7 7 7 8 8 11 9 6 7 5 3 5 5 5 3 2 2 1 2 3 4 5 5 5 6 9 9 9 9 9 9 11 13 15 16 16 17 18 17 18 18 19 21 22 23 25 23 20 19 18 16 15 14 15 15 13 13 15 14 14 13 12 11 10 10 9 9 9 9 9 9 8 7 7 6 5 4 4 4 3 3 3 2 3 3 4 5 5 5 5 5
11 10 9 9 7 7 6 6 7 7 7 9 9 6 7 6 3 4 5 4 3 2 3 2 0 1 4 6 7 6 6 8 8 8 8 8 10 13 14 15 15 15 17 17 16 17 17 17 20 20 20 22 22 22 23 19 16 16 15 15 16 14 15 15 13 13 12 11 11 10 9 9 9 9 9 10 9 8 8 7 6 5 4 4 4 4 4 4 3 3 4 4 4 4 4 4 4
9 10 10 9 8 7 5 5 5 5 5 6 8 6 2 3 6 5 4 4 3 2 3 4 3 4 5 6 7 8 7 8 7 7 8 8 11 14 14 15 15 15 17 16 15 15 15 16 18 19 19 20 21 24 24 20 17 17 15 16 18 17 17 16 13 12 11 11 12 11 10 10 10 10 10 11 10 9 8 7 6 5 5 5 5 5 5 5 5 5 6 6 5 5 5 5 4
6 9 10 9 8 8 7 7 5 5 6 6 6 5 4 6 6 6 6 5 5 4 4 5 6 6 6 6 6 6 5 4 5 6 7 8 10 11 13 15 15 15 17 16 15 15 15 15 17 19 20 20 20 22 23 21 18 17 17 19 19 19 18 16 14 14 13 13 12 11 11 11 11 11 11 11 10 9 8 7 7 7 6 6 6 6 6 6 6 6 7 7 7 6 6 5 4
5 6 7 8 9 9 6 6 6 6 8 7 8 10 6 5 3 5 6 5 5 5 4 4 5 6 5 5 5 6 6 5 4 6 7 8 9 10 12 14 14 15 16 16 16 17 15 15 17 19 20 21 20 19 20 20 20 21 22 22 21 20 18 15 15 15 15 14 13 12 12 12 11 11 10 11 10 9 8 7 7 8 7 7 7 7 7 7 7 7 7 7 7 6 5 4 3
12 6 4 5 8 8 6 6 6 7 8 6 9 12 5 3 3 4 5 4 5 5 5 4 4 5 5 5 4 5 7 7 6 7 8 9 10 11 13 13 13 15 16 17 16 15 15 15 16 18 19 20 20 18 17 18 18 18 20 21 20 18 16 15 16 15 15 15 13 12 12 11 11 10 10 11 11 10 9 7 8 8 8 8 7 7 8 8 7 8 8 7 6 5 5 4 4
15 10 7 6 6 6 6 6 6 7 8 7 9 9 2 4 3 4 4 4 5 6 6 5 5 5 6 7 6 4 4 4 3 5 6 7 9 11 12 11 11 13 14 13 13 13 15 15 15 16 16 16 18 17 15 15 15 14 15 18 18 17 16 16 16 15 15 14 13 12 12 10 10 10 10 11 11 10 9 8 8 8 8 8 8 8 8 8 8 8 7 7 6 6 5 5 5
12 10 9 8 7 6 5 4 5 8 6 5 8 6 1 2 2 3 5 4 4 6 7 5 6 7 7 9 8 6 6 6 6 4 3 1 2 4 7 8 9 8 5 8 9 10 10 9 8 10 10 10 13 15 13 12 13 13 14 17 18 16 16 16 16 15 15 14 13 12 11 10 10 10 12 12 11 10 10 9 9 8 8 9 9 9 8 8 8 7 6 6 6 6 6 6 5
11 10 10 10 8 7 7 6 6 7 6 6 7 3 2 1 2 2 3 4 4 4 7 6 6 8 9 10 11 10 9 10 11 9 6 5 4 2 1 2 4 3 7 8 7 7 3 1 2 4 5 5 6 8 10 11 10 11 14 16 17 16 15 15 15 15 14 14 13 12 11 10 9 10 12 13 11 11 9 9 9 8 8 9 9 10 9 8 7 6 6 6 6 6 6 6 6
Wind_Direction
185 204 220 227 241 240 223 220 241 207 230 255 250 259 246 155 286 288 246 195 259 165 26 326 291 295 278 286 299 310 312 309 350 349 41 100 167 115 123 132 135 136 139 147 141 146 153 159 166 164 166 166 167 167 165 164 164 164 163 161 160 157 153 151 152 156 154 152 150 145 143 141 140 138 138 138 136 134 135 137 134 130 130 132 128 126 123 118 114 108 101 94 88 85 91 103 110
205 218 227 232 234 240 228 204 251 232 217 248 243 245 132 98 225 254 238 148 351 46 355 302 284 279 270 279 287 280 279 359 40 65 82 114 132 109 126 136 140 139 141 149 144 144 146 158 164 164 165 164 166 165 164 164 163 163 163 161 159 158 155 153 153 154 152 149 147 145 143 142 143 144 144 143 141 144 145 139 134 133 134 134 129 127 125 122 117 111 104 98 93 88 87 95 105
229 221 212 218 226 237 248 213 245 252 234 252 246 219 86 199 275 68 36 358 343 347 290 281 274 274 254 235 242 257 229 58 55 85 110 134 136 129 139 138 138 137 144 151 147 146 148 160 163 163 163 163 165 163 164 164 163 163 162 161 159 159 156 153 151 151 149 146 145 144 144 145 147 148 148 147 148 151 146 139 139 139 137 134 132 131 128 126 119 113 110 105 97 91 88 91 99
232 226 220 223 219 220 239 227 236 258 253 260 263 76 53 284 46 49 1 325 311 286 269 281 267 263 260 246 215 266 38 71 58 63 132 144 137 142 143 140 139 136 147 156 151 148 153 164 161 161 162 163 164 163 165 163 163 163 162 161 159 159 155 152 148 148 147 143 141 144 148 149 150 150 150 151 154 151 143 142 144 142 140 137 134 134 131 127 119 115 114 110 102 94 91 92 100
231 227 233 244 238 233 243 237 236 252 253 265 288 83 70 19 48 351 308 297 266 255 255 273 261 180 235 285 14 312 357 73 71 49 116 118 127 142 144 144 142 139 149 159 155 147 155 165 161 161 162 162 163 163 164 163 163 163 163 161 159 157 154 151 147 147 146 144 143 146 151 151 150 149 150 153 153 149 146 146 145 143 143 139 138 138 135 129 121 119 115 112 107 99 95 95 100
230 220 224 245 264 297 260 241 234 240 247 264 287 78 78 23 14 329 297 273 248 253 251 255 262 249 216 85 47 30 12 54 109 82 117 125 137 142 144 147 145 143 151 158 154 147 156 165 162 162 162 162 162 162 163 162 163 163 162 160 158 156 155 152 147 147 146 146 147 147 148 150 151 150 152 152 149 147 146 146 145 146 145 145 146 141 133 129 126 123 118 115 112 108 105 100 100
226 212 204 230 248 259 245 244 243 244 229 254 285 1 33 16 353 303 289 275 226 218 223 238 257 273 236 118 86 52 41 16 119 117 135 141 142 142 144 148 148 146 151 158 154 150 162 164 162 162 161 161 159 160 161 160 162 162 161 158 157 157 156 153 150 149 148 148 148 148 147 150 154 155 157 152 148 147 145 147 148 150 152 155 151 138 132 132 131 127 126 131 124 114 109 101 100
235 233 210 226 231 213 236 248 247 253 132 96 298 353 2 342 320 286 293 284 259 225 207 226 241 256 222 157 137 74 67 37 93 125 142 148 146 148 147 148 151 148 152 158 155 155 166 165 161 161 159 159 158 160 160 160 161 160 160 159 158 156 155 154 153 150 149 150 149 150 150 152 155 158 160 153 150 148 149 152 152 155 156 156 145 138 139 138 139 138 137 138 126 114 112 107 105
229 233 225 232 244 220 233 247 243 249 231 69 35 54 352 312 305 285 283 265 272 273 227 223 233 243 202 162 127 89 86 81 111 131 145 150 149 153 148 151 153 150 155 155 153 158 166 164 161 160 158 159 158 160 161 161 161 159 159 158 158 156 154 153 152 151 151 152 151 153 152 152 156 160 159 154 153 151 155 157 156 158 156 151 144 145 149 146 148 147 142 132 122 117 117 114 112
215 221 239 238 250 242 235 241 234 238 224 60 70 68 4 321 300 276 275 275 274 263 243 233 242 248 216 124 106 88 92 110 128 141 148 150 152 155 150 154 154 153 158 151 149 156 160 161 161 159 158 159 158 160 160 161 161 159 159 158 159 157 154 153 151 153 157 156 153 153 152 152 157 161 161 159 157 155 159 161 160 159 158 153 150 152 153 157 156 146 137 125 121 122 122 118 114
218 209 245 250 242 245 238 237 218 184 115 139 144 93 356 320 298 283 280 283 264 252 239 217 234 242 215 109 93 93 106 130 140 150 153 154 156 157 154 155 155 155 156 150 151 154 155 160 161 159 158 156 157 158 158 159 160 159 158 158 159 156 154 155 155 158 161 159 153 151 153 155 159 162 164 163 159 158 164 166 163 160 158 156 154 158 162 166 156 141 126 117 122 126 124 119 113
234 203 222 245 240 241 245 262 235 139 126 187 154 92 333 305 304 305 294 287 260 245 220 205 233 246 211 126 103 116 131 148 149 158 159 159 161 160 160 158 157 156 154 151 153 152 151 158 161 160 158 156 157 157 157 158 157 157 157 157 156 154 155 157 158 159 159 158 153 152 155 157 158 158 160 162 160 163 168 168 165 159 157 157 155 163 170 165 150 138 121 112 125 130 122 116 112
242 229 226 240 252 256 263 279 265 244 240 176 119 77 306 300 319 317 304 292 261 242 216 208 310 267 213 109 109 128 142 157 155 164 164 165 167 163 164 163 160 157 155 153 151 151 151 155 158 160 160 158 158 157 158 158 157 156 155 155 155 156 157 159 158 155 152 153 152 152 156 157 155 155 156 159 163 168 171 168 164 159 158 161 163 170 170 160 154 141 121 112 125 135 126 116 111
237 253 256 250 257 262 266 268 243 245 229 125 98 45 302 308 321 309 307 294 264 264 349 351 303 256 194 102 122 129 147 163 161 169 168 170 169 162 165 163 162 159 157 155 153 153 153 156 156 160 162 159 159 159 159 159 158 157 157 158 158 158 156 157 156 151 149 148 149 151 156 157 155 156 157 159 164 170 173 170 164 160 160 165 172 174 167 165 163 142 123 114 120 137 136 122 112
243 265 265 259 259 255 239 243 267 258 170 109 98 18 303 301 315 299 317 300 305 7 318 299 281 276 188 124 154 144 153 163 163 163 150 148 133 111 117 123 151 164 158 156 157 156 156 157 157 158 160 159 158 158 160 160 159 159 160 161 159 157 155 155 153 149 148 146 147 153 156 157 156 158 160 161 162 167 171 174 173 166 162 167 174 172 167 171 163 140 130 119 117 132 140 132 118
249 272 255 249 252 251 212 205 246 257 131 97 93 54 288 299 6 301 348 289 286 132 268 238 71 357 50 89 133 142 146 155 156 153 150 160 109 85 100 105 111 135 152 161 162 160 160 157 155 157 157 156 153 153 159 158 159 161 162 162 160 159 157 156 153 151 150 148 149 153 154 154 157 160 162 161 160 163 167 173 177 174 170 169 173 170 169 172 158 143 138 124 117 124 137 141 129
233 256 247 241 242 247 191 177 180 193 104 87 55 27 301 314 14 312 314 247 250 187 239 66 71 55 66 86 121 137 144 160 161 159 164 157 117 113 151 150 150 117 89 180 191 160 160 158 155 154 153 152 148 148 154 156 159 161 161 162 162 161 161 160 157 155 153 153 153 152 154 155 158 162 163 162 161 162 165 170 170 173 180 180 175 170 174 173 160 152 148 135 124 117 128 142 143
221 231 236 238 233 249 16 122 50 5 53 58 1 354 320 314 351 334 283 232 220 204 184 90 69 79 91 107 133 148 153 167 167 161 153 142 131 133 158 159 150 129 103 146 221 49 125 154 154 153 151 148 147 148 151 156 158 157 158 161 163 164 165 165 162 160 159 158 156 154 155 156 158 160 162 162 162 163 167 169 165 168 178 182 178 175 178 176 166 160 155 148 140 130 122 131 147
224 231 231 239 237 36 19 11 25 346 339 1 314 334 316 305 341 320 293 277 251 225 155 92 78 106 112 127 148 163 163 170 170 166 158 153 157 148 156 139 107 117 124 141 150 98 108 142 152 148 144 143 148 151 152 156 156 155 158 159 162 166 166 166 163 161 161 159 159 158 156 155 157 159 162 162 162 163 164 163 162 166 173 180 183 182 183 178 173 165 157 157 153 148 139 137 159
226 239 234 240 306 19 35 1 8 342 331 319 309 333 292 293 330 292 295 294 260 239 125 105 138 127 123 143 153 167 169 171 169 171 165 159 158 155 157 137 123 132 136 146 136 124 149 152 156 148 138 145 151 153 154 157 158 157 158 159 162 164 163 162 161 159 158 159 160 160 159 158 157 160 168 167 163 163 162 160 161 164 170 181 184 183 183 181 179 175 170 166 163 168 175 184 192
222 229 243 264 6 320 151 32 346 332 315 305 310 301 280 313 315 275 290 273 242 221 117 141 160 135 153 164 156 170 170 170 173 176 171 164 161 161 155 139 149 157 153 167 153 143 154 154 163 157 143 150 154 154 155 156 159 161 160 161 162 164 164 161 160 159 157 162 163 158 160 162 159 163 173 173 167 165 164 163 163 165 169 177 177 176 181 183 181 184 191 183 182 197 207 203 205
237 230 254 286 329 278 112 53 303 321 297 290 290 282 304 328 282 270 285 277 302 29 69 146 156 155 167 163 163 176 171 174 178 179 179 172 165 163 160 147 155 166 168 179 169 156 158 159 166 161 153 159 160 157 157 159 162 165 163 160 162 165 165 162 163 165 163 165 166 162 163 167 166 167 170 170 167 165 166 165 166 170 171 172 174 174 178 183 185 192 200 202 207 211 216 219 216
247 235 246 264 268 268 306 291 281 300 283 281 288 293 314 295 271 277 274 280 350 15 10 141 145 145 153 160 172 178 171 176 176 177 182 181 177 172 168 161 163 165 167 179 176 165 160 160 164 164 163 166 164 159 159 163 165 165 161 160 162 163 168 168 164 165 166 165 165 164 168 172 170 166 166 167 167 167 170 169 167 170 168 171 177 177 178 184 192 194 193 202 213 212 217 222 220
241 250 243 243 251 265 280 286 280 279 275 283 287 286 286 270 273 292 270 286 9 8 324 130 129 135 157 168 169 168 166 172 174 178 183 191 189 176 171 172 172 165 163 177 177 166 159 158 159 164 166 162 161 162 161 163 169 166 159 162 161 164 176 174 167 164 165 167 166 166 169 171 167 165 167 167 167 167 169 166 160 163 162 167 174 173 178 184 189 187 184 197 211 216 219 218 219
231 249 256 247 247 257 266 269 265 266 270 273 270 268 267 262 277 283 265 294 43 335 158 134 129 135 155 161 157 159 160 168 177 182 188 194 180 174 187 182 171 170 173 177 169 158 156 153 151 156 163 158 155 164 165 164 173 170 161 164 163 168 178 174 172 169 167 172 170 167 167 168 165 164 165 165 166 164 161 159 156 160 159 163 168 166 172 177 178 181 185 194 208 213 214 216 221
222 237 249 247 246 247 253 257 258 262 262 264 264 260 258 256 267 259 241 67 69 196 155 129 120 127 151 156 156 160 164 172 182 186 186 175 162 180 200 187 173 174 175 172 165 160 158 153 146 152 164 158 148 158 166 167 173 178 169 168 166 169 177 174 176 173 176 180 170 168 169 164 163 162 163 164 163 158 156 156 155 155 154 157 161 159 159 164 171 177 184 190 199 208 209 213 219
218 240 252 252 255 255 250 256 259 263 261 257 260 258 256 253 253 237 180 105 190 184 147 124 121 147 166 159 159 165 171 178 184 185 182 163 160 185 191 179 169 165 168 170 178 179 161 148 140 149 164 162 157 162 168 168 170 177 172 172 172 170 172 175 181 181 186 181 162 168 173 163 158 159 163 163 159 157 156 155 152 152 152 152 153 153 154 158 168 175 187 194 199 207 208 212 221
270 257 261 251 254 253 244 248 249 253 252 243 252 259 254 243 245 236 149 136 216 180 149 140 142 167 169 155 153 163 173 175 179 180 178 167 165 180 180 173 168 165 176 184 201 201 155 144 142 148 160 168 169 168 168 168 169 169 165 173 176 175 178 180 187 188 187 179 161 169 174 167 160 160 165 164 162 159 156 153 151 151 148 147 146 149 154 159 169 177 189 200 202 210 210 215 235
256 252 259 247 240 240 232 231 234 242 242 231 257 261 244 223 234 231 159 160 216 184 160 150 155 168 162 151 148 169 181 169 170 169 169 172 167 172 177 172 169 171 183 189 181 171 156 147 147 151 158 168 171 170 170 169 169 167 164 173 179 182 186 184 187 193 186 182 182 177 175 175 167 166 172 167 166 161 155 153 150 149 148 151 152 152 159 166 173 176 184 193 196 208 214 216 233
242 237 252 252 239 234 217 209 221 240 234 186 254 257 234 214 220 214 152 167 211 194 171 155 164 170 159 160 162 178 186 171 164 165 164 158 148 154 166 164 164 170 171 172 165 167 161 143 139 148 157 164 169 173 173 169 168 167 163 169 181 185 185 189 193 200 186 171 183 185 183 186 178 177 180 170 168 162 154 154 151 153 157 162 159 153 163 175 178 178 185 189 192 203 207 208 218
237 232 228 241 253 214 173 177 203 222 177 169 233 252 253 224 196 175 150 177 202 203 186 161 167 179 166 167 165 169 183 172 157 164 152 136 138 144 150 154 156 165 164 158 153 152 149 137 132 140 152 162 169 172 171 168 169 167 164 167 177 180 181 195 200 201 192 169 182 190 189 191 186 189 190 177 169 160 152 153 154 158 161 162 160 160 170 177 175 179 186 184 184 199 199 203 211
224 233 219 218 243 170 144 165 204 222 150 177 223 240 260 234 150 153 167 184 200 208 201 172 169 180 176 173 163 167 180 166 149 160 143 135 144 141 142 152 150 155 155 145 141 144 149 149 143 139 149 162 165 167 167 167 171 172 175 175 178 183 185 199 204 203 202 178 182 190 190 194 190 193 201 187 167 155 152 156 158 162 164 160 159 167 175 171 171 174 182 182 182 195 193 193 194
206 228 242 211 213 194 154 168 198 231 193 190 215 241 260 178 126 155 177 183 203 215 207 185 179 179 180 184 171 174 178 160 152 164 152 148 152 143 144 150 140 140 146 145 144 148 152 152 152 149 151 160 163 169 169 166 173 176 181 184 186 192 193 204 209 204 197 180 184 191 189 193 192 194 205 188 162 155 158 162 165 165 162 158 156 167 175 169 168 165 167 178 195 213 190 169 172
199 212 250 234 219 233 167 155 174 201 215 216 218 236 261 218 137 149 178 193 205 219 212 189 188 188 190 192 176 184 184 164 167 175 169 158 145 146 149 143 135 133 140 149 151 149 147 145 152 152 150 158 163 171 174 171 173 175 182 188 192 200 198 205 207 196 195 194 193 194 191 193 193 193 197 177 163 166 168 168 172 167 157 154 154 161 169 168 166 166 171 171 207 250 172 143 165
217 205 226 236 225 245 250 165 147 180 213 231 226 224 250 255 217 164 174 193 207 222 219 197 200 195 195 195 170 184 195 182 180 176 173 160 146 152 149 140 137 134 139 149 151 149 147 146 149 150 154 160 164 170 175 175 177 184 190 193 199 206 205 206 198 189 199 195 187 189 193 194 189 188 187 177 176 177 169 166 170 166 155 151 152 157 163 164 159 159 168 157 178 262 119 136 162
273 231 219 239 231 228 240 172 126 174 234 236 238 240 239 246 252 226 175 182 217 224 213 209 217 202 201 199 177 197 204 197 188 175 173 160 155 159 148 143 139 136 144 149 150 151 152 152 151 155 162 163 167 172 175 179 185 189 195 204 207 207 207 206 194 188 199 191 178 182 189 187 185 191 187 181 187 179 166 171 173 164 154 149 148 158 166 162 155 153 155 151 151 151 131 143 156
306 280 244 253 259 247 225 187 162 199 257 249 242 251 250 244 249 238 183 178 222 226 212 213 215 208 210 192 175 203 213 203 185 173 172 164 163 167 155 151 149 143 147 151 154 154 155 157 155 159 166 169 173 176 178 183 189 189 193 204 207 206 205 204 195 187 192 193 182 179 184 183 186 195 187 181 187 180 177 183 171 157 155 155 152 154 155 146 149 155 148 151 164 162 156 152 153
265 270 263 249 250 251 225 171 186 206 235 256 249 246 250 246 248 249 209 186 217 227 220 220 215 206 207 188 174 201 236 229 189 163 166 169 167 166 157 155 158 154 151 153 154 149 150 158 161 164 170 174 176 177 178 180 188 192 192 199 202 203 202 198 193 183 181 190 185 180 186 189 188 189 184 179 179 180 194 183 157 155 159 155 152 144 139 142 151 160 157 161 170 169 170 159 160
248 254 258 253 245 250 229 155 198 227 227 254 253 249 250 241 238 248 236 208 217 227 221 226 224 200 189 206 196 188 208 230 208 174 175 177 171 165 159 156 159 159 157 151 145 147 151 162 169 169 171 176 180 181 179 178 192 196 195 200 199 195 196 192 191 185 178 184 181 176 183 187 186 183 176 178 178 179 190 174 148 159 154 141 142 139 150 164 159 160 171 176 172 172 177 171 183
243 244 245 246 244 249 237 188 208 226 237 260 267 264 258 250 238 242 242 218 211 224 221 225 231 207 193 203 198 185 196 218 211 181 185 202 182 170 164 160 158 163 163 145 138 154 165 175 178 173 172 179 188 189 181 183 198 201 199 201 199 194 190 186 192 186 178 183 180 172 175 180 182 181 178 181 180 171 168 159 151 156 145 137 144 152 165 171 164 166 177 181 183 187 179 173 189
227 236 247 251 251 251 240 220 220 223 236 245 262 270 254 246 239 236 237 219 212 222 224 224 230 226 208 187 182 193 196 206 208 159 146 244 207 174 172 167 163 168 160 143 146 166 183 190 187 184 184 183 189 195 185 182 192 195 193 191 193 194 187 185 195 187 177 183 181 174 169 172 179 181 181 179 168 159 156 152 151 150 146 146 151 161 164 165 173 176 175 181 202 219 190 175 183
226 221 234 248 262 268 261 260 263 252 247 228 223 244 248 233 232 227 224 218 211 216 228 228 226 231 227 187 170 192 193 191 210 163 161 231 221 186 179 173 175 174 153 143 153 169 187 193 187 181 179 179 186 196 187 179 183 182 179 181 186 186 184 192 193 187 190 187 180 173 164 167 178 172 170 167 156 156 154 149 151 153 154 155 157 160 158 167 182 181 177 185 207 227 225 193 188
244 220 222 233 253 268 257 258 260 251 268 246 207 235 264 246 233 219 220 221 204 207 227 230 227 227 232 214 167 171 186 181 204 185 173 212 214 191 182 180 188 169 136 140 153 171 197 197 183 172 170 178 186 189 183 177 179 178 174 179 187 181 178 197 199 199 201 188 171 165 160 165 170 161 158 158 154 154 150 147 152 155 157 159 160 158 159 173 180 176 179 183 196 198 192 227 205
244 222 220 224 235 251 247 250 255 251 266 260 200 234 264 267 251 210 220 231 214 213 219 219 230 226 227 233 186 165 178 175 180 191 184 198 197 184 180 182 185 154 142 161 161 168 192 193 181 169 168 184 185 178 181 178 177 179 173 172 185 190 186 192 196 199 197 180 163 161 163 163 159 155 153 152 152 151 149 148 150 152 155 159 159 157 163 173 171 163 168 172 182 188 190 234 240
242 182 215 244 248 252 249 244 245 249 256 249 222 229 247 261 257 222 213 225 226 220 209 204 228 235 231 242 209 160 167 172 165 185 194 188 178 177 177 173 166 147 156 174 163 161 175 183 184 168 161 180 180 174 180 178 173 174 169 169 180 188 190 186 182 189 191 180 169 161 158 156 151 150 150 148 148 146 145 143 145 147 144 148 154 152 155 158 156 155 167 181 187 189 191 227 245
251 236 218 240 254 252 249 248 245 241 245 252 243 232 241 257 259 244 217 218 227 211 187 189 229 258 258 256 225 150 149 176 175 182 188 177 170 174 173 168 160 148 156 172 164 160 167 172 175 165 166 181 180 174 178 177 173 171 167 174 180 177 180 182 179 189 194 181 167 159 154 152 149 146 142 141 137 136 138 136 135 136 130 134 139 134 138 140 144 152 166 178 182 183 190 207 211
248 263 230 229 235 239 241 245 250 248 238 244 249 244 247 252 260 292 203 168 157 146 174 195 217 254 256 256 238 158 150 177 176 175 177 169 170 171 168 167 164 156 157 164 161 161 166 164 159 159 168 182 183 179 178 174 172 171 167 174 181 173 172 181 182 187 187 174 163 157 152 149 144 140 136 132 129 128 130 129 129 129 125 127 129 126 136 143 151 163 171 181 182 181 188 197 202
228 234 236 234 224 222 230 229 233 248 245 240 247 243 238 240 241 59 77 83 85 122 201 212 223 246 236 236 228 160 155 172 167 168 170 166 168 169 170 171 170 169 166 164 161 161 166 167 162 163 169 182 189 183 177 170 165 166 166 174 180 168 168 183 186 183 178 168 160 154 151 148 139 137 134 129 128 130 129 125 125 126 124 125 126 128 139 150 161 170 179 190 193 191 189 192 201
225 223 228 235 224 214 225 226 219 233 244 248 256 246 232 230 138 118 111 78 76 79 303 251 242 243 212 205 209 170 164 166 165 170 168 168 174 173 177 175 175 178 174 170 167 165 169 172 173 171 172 179 182 178 175 171 163 161 166 177 176 165 178 194 187 178 171 163 160 154 151 149 142 140 139 137 136 135 134 127 123 123 123 124 122 122 132 143 154 162 170 183 191 194 191 190 200
216 215 219 225 222 218 223 231 230 231 237 244 251 248 235 227 121 111 97 67 57 63 43 315 261 242 182 178 186 179 176 172 175 178 174 180 183 181 185 182 178 176 172 173 172 171 172 173 176 176 174 175 174 173 177 172 163 161 167 173 168 169 195 201 183 173 169 163 160 154 149 148 145 142 141 145 147 142 135 129 125 124 124 129 127 125 133 131 139 150 153 169 180 179 181 188 194
212 218 225 228 228 231 233 236 239 241 244 234 220 225 249 237 145 89 77 67 46 62 86 88 70 180 173 174 164 161 182 193 194 190 186 192 192 190 188 184 181 173 169 174 178 177 177 177 181 179 172 171 170 171 174 171 165 166 170 175 170 176 198 196 176 171 170 160 154 151 149 148 146 145 143 145 148 143 133 130 132 132 134 140 139 142 146 134 139 144 135 145 160 155 156 161 162
205 212 226 233 231 232 244 265 269 274 275 241 211 222 261 130 126 119 110 100 86 90 108 121 143 158 168 174 166 165 184 198 202 197 189 188 187 185 179 179 183 178 175 180 183 183 182 183 185 178 168 169 170 169 168 167 167 167 171 175 171 177 191 186 171 167 162 153 150 149 149 146 143 142 141 142 144 141 137 139 143 143 146 150 146 150 151 140 138 135 129 134 139 137 136 133 138
202 207 221 227 229 232 242 251 251 261 269 258 235 226 158 135 148 151 146 130 120 127 122 126 142 151 162 170 170 171 172 179 194 187 176 174 177 176 176 180 184 181 180 183 186 186 186 188 188 178 170 171 173 169 166 166 166 168 173 175 175 178 181 175 162 156 152 147 147 146 141 139 139 138 138 140 142 141 143 145 143 146 149 148 148 149 146 142 140 135 134 138 136 136 136 133 139
233 218 222 219 223 233 248 249 230 225 243 247 242 237 205 171 179 157 152 137 122 134 130 118 124 135 150 156 155 153 141 149 192 189 177 172 170 173 181 184 184 181 181 184 188 187 185 189 190 182 174 173 174 170 168 171 169 170 176 179 178 174 166 161 155 150 147 146 146 143 140 141 142 142 140 140 143 145 147 145 141 145 147 146 150 148 143 142 142 139 139 140 138 139 142 144 152
232 244 245 235 231 221 214 232 234 231 239 241 240 241 228 99 113 155 170 147 122 130 132 122 121 136 140 127 125 138 138 152 181 184 183 180 176 178 185 187 183 183 187 188 187 185 182 186 193 191 182 175 175 172 168 169 167 167 172 172 169 161 153 153 154 149 145 146 146 142 142 146 145 144 144 144 149 151 150 146 145 148 150 151 151 147 147 148 147 146 146 148 150 153 155 155 159
222 240 241 236 250 239 218 225 234 236 238 239 241 238 210 65 98 147 155 146 143 140 133 134 136 131 113 102 107 124 133 145 162 167 180 180 175 177 181 186 186 189 191 179 173 182 187 189 194 196 189 177 175 176 173 170 165 162 164 162 159 155 151 150 150 149 147 148 149 147 148 151 150 149 151 153 156 155 152 152 151 152 155 158 157 155 156 156 154 156 158 160 163 167 163 156 159
206 226 228 222 231 237 238 245 253 255 251 242 247 239 149 48 47 128 137 131 147 144 132 128 117 99 71 64 65 56 43 31 36 31 335 295 155 164 169 175 184 190 165 134 164 203 200 192 198 204 208 197 182 177 176 173 167 163 165 164 158 152 148 146 145 147 149 149 148 148 151 153 155 154 155 159 160 156 156 156 155 156 158 161 165 164 164 163 163 166 167 163 166 170 160 149 153
205 210 218 223 226 229 232 228 230 245 253 249 245 214 112 25 17 68 112 101 91 111 121 115 96 81 66 54 49 44 37 28 33 30 360 344 344 342 74 155 165 104 70 105 176 229 233 161 203 216 233 228 209 195 184 179 175 169 167 166 160 151 145 144 146 146 149 152 150 149 151 151 155 158 158 162 160 156 160 160 158 159 157 161 169 168 168 172 169 168 164 163 171 168 150 141 147
Height
778 779 778 779 776 775 772 770 781 773 771 775 759 750 737 726 730 736 739 739 740 736 731 733 732 733 737 739 736 733 732 735 740 750 760 754 743 744 746 747 751 752 756 761 762 764 765 767 768 769 771 772 775 776 778 780 782 784 786 788 789 791 793 795 797 799 800 801 803 804 805 807 808 809 810 811 812 813 814 814 815 816 817 818 818 818 819 819 819 819 818 818 818 817 817 817 817
779 780 778 779 775 776 770 766 782 773 769 774 752 740 733 729 737 740 739 740 740 736 733 732 732 732 732 731 731 735 734 729 733 745 748 743 744 747 747 750 751 753 757 761 763 765 767 768 768 770 771 773 775 776 779 780 782 784 786 788 790 792 793 795 797 800 801 802 803 805 807 807 809 810 811 812 813 814 815 815 816 817 818 819 819 820 820 820 820 820 820 820 819 819 819 819 819
779 779 776 778 773 772 767 766 781 772 766 766 744 729 729 736 739 739 739 740 738 734 735 733 733 731 730 734 734 737 737 730 732 739 743 743 745 748 750 751 752 755 758 761 764 765 768 769 769 771 772 774 775 777 779 781 783 785 787 789 791 792 794 796 798 800 802 803 804 806 808 809 810 811 812 813 814 815 816 817 818 819 819 820 821 821 822 822 822 821 821 821 821 821 821 820 820
778 778 775 773 771 771 770 773 775 769 765 756 742 733 733 738 739 742 741 739 737 735 736 735 735 727 729 738 732 734 738 735 736 737 741 743 744 748 750 752 754 755 758 762 764 765 768 769 770 771 773 775 776 778 780 782 784 786 788 789 791 793 795 797 799 801 803 804 805 807 808 810 811 812 813 813 815 816 817 818 819 820 821 821 822 822 823 823 823 823 822 822 822 822 822 822 822
777 777 774 771 772 769 769 771 766 765 762 747 741 740 738 739 741 745 740 738 736 735 735 736 737 726 726 732 729 739 743 738 737 736 740 744 745 749 751 753 754 755 759 762 763 766 768 769 771 772 774 775 777 779 780 783 784 787 789 790 792 794 796 798 800 801 804 805 806 808 809 811 812 813 814 814 816 816 818 819 820 821 822 822 823 824 824 824 824 824 824 824 824 824 823 823 823
776 775 772 770 768 764 769 772 765 762 749 736 738 738 739 740 742 745 740 736 732 732 733 734 735 729 731 730 729 739 741 740 740 738 742 746 748 749 751 753 755 757 760 761 764 766 768 770 771 773 774 776 778 779 781 783 785 787 789 791 793 795 797 799 801 802 804 806 807 809 810 812 812 814 815 815 816 817 819 820 821 822 823 823 824 824 824 825 825 825 825 825 825 825 825 824 824
774 773 771 773 768 764 775 773 761 753 738 733 737 736 740 743 743 744 741 738 734 732 731 732 729 733 737 731 736 739 737 740 737 740 745 747 749 750 752 753 755 757 760 762 764 766 769 770 771 774 775 777 778 780 782 784 786 788 790 792 794 796 798 800 801 803 805 807 808 810 811 812 813 814 815 816 817 818 820 821 822 823 824 824 825 825 826 826 826 827 826 826 826 825 826 826 825
773 771 767 773 773 768 774 767 755 745 736 734 735 739 744 745 744 743 742 741 738 733 732 731 727 738 737 728 743 744 737 740 738 743 747 748 750 751 753 754 755 758 761 763 764 766 768 770 772 774 776 778 779 781 782 784 787 789 791 793 795 797 799 801 802 804 806 807 809 810 812 813 814 815 816 817 818 819 820 822 823 824 824 825 826 826 827 827 827 827 827 827 827 827 827 827 827
771 770 766 771 772 768 768 762 751 740 734 736 737 743 744 743 742 742 742 739 736 734 732 728 727 739 734 729 745 743 739 742 742 746 747 749 751 751 753 754 756 758 761 763 764 767 769 771 773 775 777 779 780 782 783 785 788 790 792 794 796 798 800 801 803 804 806 808 809 811 812 813 814 815 817 818 819 820 821 822 824 824 825 826 826 827 827 828 828 828 828 828 828 828 828 828 828
769 768 767 770 770 768 765 756 747 738 735 738 741 743 744 742 741 740 741 738 734 734 730 724 728 733 730 737 747 744 744 744 746 748 748 750 751 752 753 754 756 757 761 763 765 767 770 773 774 777 778 780 781 783 784 786 789 791 793 795 797 798 800 802 803 805 806 808 810 811 813 814 815 816 817 818 819 821 822 823 824 825 826 826 827 828 828 828 828 829 829 829 829 829 829 829 829
771 766 765 772 772 769 761 749 741 736 737 740 742 742 743 740 740 739 738 737 732 732 729 726 733 730 730 744 749 748 748 747 749 749 749 751 752 753 753 755 757 758 761 763 766 769 771 774 776 778 779 782 783 784 786 788 790 792 794 795 797 799 801 802 803 805 806 808 810 812 813 814 815 816 817 818 820 821 822 824 824 825 826 827 828 828 828 829 829 829 830 830 830 830 830 830 830
772 766 766 774 770 761 751 744 739 737 740 743 744 743 741 739 741 742 739 738 732 732 729 727 730 724 733 748 749 749 749 750 750 750 751 751 752 753 754 755 757 759 762 764 767 770 772 776 778 780 782 784 785 787 788 790 793 793 795 797 798 800 801 803 804 806 807 809 811 812 813 814 815 816 818 819 820 821 823 824 825 826 827 828 828 829 829 830 830 830 831 831 831 831 831 831 831
770 764 765 771 761 752 747 744 742 744 745 741 745 744 740 740 744 742 739 737 732 735 729 723 723 723 738 748 749 750 751 752 751 752 752 752 752 753 755 756 758 760 763 765 768 771 774 777 779 782 784 786 787 789 790 792 794 795 797 798 800 801 802 804 805 806 808 810 811 812 814 815 815 816 818 819 821 822 823 824 825 826 827 828 829 829 830 830 831 831 831 832 832 832 832 832 832
765 759 762 767 757 751 748 747 744 748 747 739 743 743 739 740 742 738 738 740 735 733 728 721 722 729 742 748 753 754 752 753 752 754 753 754 755 755 758 759 760 762 764 766 768 771 774 777 780 783 784 787 789 790 792 793 794 796 798 799 801 802 803 804 805 807 809 810 812 813 814 815 816 817 818 819 821 822 823 825 826 827 828 829 829 830 831 831 832 832 832 832 833 833 833 833 833
761 756 761 766 760 753 748 747 746 747 744 740 744 742 741 738 736 737 737 742 736 726 726 724 723 733 743 750 758 752 750 753 753 755 757 760 760 761 763 764 767 768 769 770 771 772 774 777 779 782 785 787 789 791 793 794 795 796 798 800 801 802 804 805 806 808 809 811 812 814 815 816 817 818 819 820 821 822 824 825 826 827 828 829 830 831 831 832 833 833 833 833 834 834 834 834 834
758 758 764 768 764 755 746 744 747 749 744 741 743 741 745 738 733 738 733 735 735 726 728 730 728 736 743 747 753 747 747 752 754 756 758 761 762 763 765 766 771 774 776 776 776 777 776 778 780 783 785 788 790 793 795 796 797 797 799 801 802 804 805 806 807 809 810 812 813 814 816 816 817 818 819 820 821 823 824 825 827 828 829 829 831 831 832 833 833 834 834 835 835 835 835 835 834
758 763 770 769 762 753 743 742 748 750 744 742 744 742 749 743 734 733 726 727 732 730 730 732 733 739 743 746 747 746 748 751 752 755 756 761 762 763 764 765 768 773 780 782 783 784 784 783 783 785 788 791 793 794 796 797 798 799 801 802 803 805 805 807 808 810 811 812 814 815 816 817 818 818 819 820 822 823 824 826 827 828 829 830 831 832 833 834 834 834 835 835 835 836 835 835 835
762 769 771 766 757 749 740 739 744 746 745 747 747 745 748 747 740 732 728 728 729 731 731 736 742 742 743 746 748 748 749 750 751 755 758 761 762 763 764 766 769 772 778 783 786 788 790 790 789 790 792 794 796 797 798 798 801 801 803 804 805 806 806 808 808 810 811 812 814 815 816 817 818 819 819 821 822 823 824 825 827 828 829 830 832 832 833 834 834 835 835 836 836 836 836 836 835
764 765 767 760 747 744 741 741 745 747 749 750 747 745 747 746 741 735 736 736 731 731 735 745 752 749 746 748 752 752 751 752 753 756 758 759 760 762 765 768 772 773 774 778 783 786 790 793 794 794 795 797 798 799 799 800 802 802 804 805 806 807 807 808 809 810 811 813 815 815 817 817 818 819 820 821 822 823 824 826 827 828 829 830 831 832 833 834 834 835 836 836 836 837 836 836 836
762 761 765 753 741 743 744 745 748 748 749 751 749 746 746 742 738 736 739 739 734 731 738 751 755 753 753 750 752 753 753 754 755 756 758 759 760 763 766 768 771 773 773 774 777 782 788 792 794 795 796 798 800 800 800 802 803 803 804 805 806 807 808 809 809 811 812 813 814 815 817 818 819 819 820 821 822 823 824 826 827 828 830 830 831 832 833 834 835 835 836 836 837 837 837 837 836
758 758 759 746 743 749 746 747 749 749 750 751 750 748 747 740 737 738 738 740 735 730 734 744 750 755 756 751 751 753 753 755 755 756 756 758 760 763 766 767 769 769 769 771 772 776 785 793 795 795 798 799 800 801 800 802 803 804 805 805 807 807 808 809 810 811 813 813 814 816 817 818 819 819 820 821 822 823 824 825 827 828 829 830 831 832 833 834 835 835 836 836 836 837 837 837 836
757 755 752 744 747 752 747 747 750 750 751 751 751 750 746 741 739 737 738 741 736 730 731 735 742 749 751 750 752 753 754 754 754 755 755 757 760 763 765 765 768 768 767 768 767 767 774 789 796 797 799 798 798 800 801 802 803 804 805 806 807 808 808 808 810 811 812 813 814 816 817 818 818 819 820 821 822 823 824 825 826 828 829 830 831 832 833 834 834 835 835 835 836 836 836 836 836
760 754 748 747 749 750 748 748 750 751 752 753 751 748 744 745 744 736 737 739 732 730 730 730 735 741 746 750 752 753 754 754 753 754 754 756 759 761 763 763 765 767 767 767 767 765 763 773 788 795 796 796 797 799 801 803 804 805 805 806 807 807 808 808 809 811 812 813 814 815 817 818 818 819 820 821 822 823 824 825 826 827 828 829 830 831 833 833 834 834 834 835 835 835 836 835 835
760 756 748 748 748 750 749 748 749 750 752 751 748 747 747 749 745 737 737 734 730 731 729 729 734 740 748 751 752 753 753 753 753 753 754 755 758 760 762 763 764 765 767 768 769 771 767 764 772 787 793 794 797 800 802 804 806 807 806 806 807 807 807 807 809 810 811 812 813 815 816 817 818 819 819 820 821 823 824 824 825 826 827 829 829 831 832 833 833 833 834 834 834 835 835 835 834
757 757 750 748 750 750 748 749 749 749 750 748 747 749 748 745 742 740 738 732 731 732 730 732 736 741 748 749 750 751 752 753 752 752 754 755 757 760 762 762 763 765 766 768 769 772 776 773 770 782 793 796 799 803 804 805 807 807 806 806 806 806 806 807 808 809 810 811 812 814 815 816 817 818 819 819 820 821 823 824 825 826 827 828 829 830 831 832 832 833 833 834 834 834 834 834 834
752 753 750 749 750 748 748 749 748 748 747 746 748 750 745 739 740 741 736 732 733 733 733 735 740 746 749 749 749 751 752 752 751 752 753 755 758 760 761 762 763 765 766 768 769 769 773 777 777 784 793 797 800 804 805 805 806 807 806 806 806 807 807 807 808 808 808 809 811 812 814 815 816 817 818 818 820 820 822 823 824 825 827 828 829 830 830 831 832 832 833 833 833 833 833 833 832
748 750 750 749 749 746 748 749 748 747 745 746 750 750 744 737 742 744 734 732 734 734 737 740 745 752 751 750 749 749 752 751 751 752 753 754 758 760 760 762 763 765 768 769 772 773 772 772 775 783 791 794 798 801 801 802 804 806 806 806 806 807 807 807 808 808 808 808 809 811 812 814 815 816 817 818 819 820 821 822 823 825 826 828 829 829 830 831 831 832 832 832 832 832 832 832 832
748 751 753 751 749 747 748 749 748 747 746 744 745 748 744 740 744 740 732 734 735 736 740 742 748 752 749 749 750 750 750 751 751 751 752 754 757 759 760 762 764 766 769 771 773 778 778 774 774 779 785 790 795 798 799 801 802 805 806 805 805 806 806 806 807 808 808 809 809 810 812 814 815 816 818 818 819 819 820 821 822 824 826 827 828 829 829 830 831 831 831 831 831 831 831 831 832
750 753 758 753 749 749 747 746 746 745 745 739 742 752 749 745 744 732 728 734 735 737 741 743 747 749 750 750 752 753 750 750 750 751 753 754 756 759 760 762 765 767 770 772 775 779 780 778 778 780 784 789 792 795 797 799 800 802 804 804 804 804 804 805 806 807 808 810 810 810 813 814 815 817 819 818 818 819 819 820 821 823 825 826 827 828 829 830 831 831 831 831 831 831 831 832 832
754 753 756 754 751 748 740 741 744 744 743 737 747 760 750 738 734 725 725 733 736 739 742 745 747 746 749 752 753 754 751 750 750 751 753 754 757 759 762 764 766 768 770 773 775 780 781 780 781 783 786 790 791 792 794 795 798 800 802 803 804 804 804 805 805 806 808 810 811 811 813 815 817 819 820 819 818 818 818 819 821 822 824 825 827 828 829 830 830 831 831 831 831 831 831 832 832
755 753 754 754 753 744 733 737 744 745 742 737 749 761 746 726 722 723 726 731 736 740 740 744 748 746 746 749 752 754 752 751 751 752 753 755 758 760 762 764 766 768 770 773 775 778 781 781 783 786 789 791 791 792 793 794 796 798 800 802 804 804 805 805 805 806 809 811 811 812 814 815 817 820 821 820 818 817 818 820 821 822 823 825 826 828 829 830 830 830 830 830 830 830 831 831 832
753 757 757 750 749 743 736 738 741 744 741 737 747 757 741 721 720 724 726 729 734 740 741 743 746 746 745 747 749 752 752 751 753 753 754 756 759 760 763 765 767 769 770 773 774 777 780 781 784 786 788 791 792 793 793 794 795 796 799 801 803 805 805 805 805 806 809 812 812 813 815 816 817 820 822 821 819 819 819 820 821 822 823 825 826 827 829 829 830 830 830 830 830 830 830 831 832
749 755 754 744 744 742 739 739 736 738 742 740 745 750 739 726 727 727 726 730 734 740 743 742 744 745 746 747 748 751 752 754 755 755 755 757 759 761 764 766 767 769 771 772 773 776 779 781 783 784 786 789 792 793 794 795 796 797 799 801 803 805 805 806 805 806 808 811 812 813 815 816 818 820 823 823 820 821 821 821 822 823 823 824 826 827 828 829 830 830 830 830 830 829 829 831 833
749 750 749 740 739 739 740 741 736 736 744 744 742 745 738 728 727 729 728 730 734 739 740 741 744 745 745 746 749 752 752 756 758 757 757 758 760 762 764 766 768 769 771 773 774 776 778 780 782 783 785 789 791 793 794 795 796 798 800 802 804 804 805 805 806 806 808 810 812 814 815 816 817 819 823 823 820 821 822 822 824 823 823 824 825 827 828 829 830 831 831 831 830 829 829 831 833
745 748 749 744 740 742 742 741 738 738 745 745 743 745 740 729 724 727 729 730 735 736 735 740 742 742 744 745 750 754 753 756 759 759 759 759 760 763 765 767 768 769 771 773 775 776 777 779 780 783 785 788 791 793 794 795 796 798 800 802 803 804 805 805 806 807 808 810 812 815 815 815 817 820 823 822 820 821 821 822 824 823 823 823 824 826 828 829 830 831 831 831 831 830 830 832 834
738 739 742 743 740 739 737 737 737 739 746 746 745 745 740 734 728 725 727 730 736 735 735 744 744 742 745 747 752 756 757 758 759 761 761 759 761 763 765 767 768 770 771 773 775 777 778 779 780 783 785 788 790 791 793 794 795 797 799 801 802 803 804 805 807 808 808 810 813 814 814 815 818 820 821 821 821 821 821 823 825 824 823 823 824 826 827 828 830 831 831 831 831 831 832 833 834
743 740 740 742 740 738 733 735 737 737 748 748 743 744 739 735 730 723 725 731 737 737 737 743 744 744 744 746 753 757 759 759 758 762 761 759 762 763 765 767 769 770 771 773 775 777 778 780 782 783 785 787 788 790 792 793 794 796 798 799 801 803 803 804 807 808 810 812 814 814 815 816 818 820 820 821 821 821 823 825 825 824 823 823 824 825 827 828 829 830 831 831 831 832 833 834 835
752 748 746 744 743 740 730 734 738 737 749 750 741 744 741 735 731 724 723 732 739 737 736 738 737 740 741 745 752 756 759 759 755 757 759 760 762 763 764 766 768 770 771 774 775 777 779 781 783 784 785 787 788 789 791 793 794 795 797 799 802 803 803 804 806 809 811 813 814 815 816 817 818 819 820 820 820 821 824 825 824 823 823 822 823 825 827 828 829 830 830 830 831 832 833 834 835
755 751 751 748 742 737 730 733 739 738 748 750 742 743 741 732 730 727 723 728 735 732 731 733 731 736 743 745 749 754 758 757 755 755 757 759 760 761 763 764 767 769 771 774 776 779 781 782 784 785 786 787 788 789 791 793 794 794 797 800 802 804 804 805 807 809 812 814 814 815 817 818 818 819 819 820 820 821 823 822 823 823 822 822 823 825 827 828 829 829 829 830 830 832 833 834 836
756 753 752 750 740 738 740 740 740 740 744 747 743 742 740 732 729 728 723 723 728 727 725 726 725 730 738 740 742 749 753 754 755 758 762 763 760 760 762 763 766 768 771 774 778 780 782 783 784 785 786 787 787 788 791 793 794 795 798 800 802 803 804 805 807 810 812 813 814 815 816 817 818 818 818 819 819 820 820 820 822 822 821 822 824 825 826 827 828 828 829 830 830 831 832 834 836
754 751 749 747 738 735 739 742 742 743 744 743 747 752 745 736 735 731 723 721 725 726 725 725 723 723 728 734 741 745 748 751 753 757 768 772 764 759 760 762 764 768 771 775 778 780 782 784 785 786 787 788 788 789 791 794 795 797 799 800 802 803 803 804 807 810 812 813 813 814 816 817 817 817 817 817 818 818 819 820 821 822 822 823 824 825 826 827 827 828 829 830 831 832 832 834 836
751 748 745 743 739 735 738 743 746 752 753 739 742 763 755 732 730 730 723 722 725 727 727 726 725 722 723 731 742 745 745 749 751 755 768 775 767 760 759 761 763 767 771 777 780 780 782 786 786 787 789 790 790 791 792 795 796 799 800 801 802 802 803 804 805 809 813 813 813 813 815 815 816 816 816 816 817 817 818 819 821 821 822 823 824 825 826 827 827 828 829 830 831 832 833 834 835
753 742 736 738 741 743 746 747 749 758 755 734 732 757 757 732 722 721 720 721 723 727 729 726 724 724 723 726 737 746 746 748 752 755 765 772 766 759 759 760 763 767 772 778 783 782 783 785 786 787 789 789 790 791 793 795 798 799 801 802 803 803 803 803 805 809 812 811 811 811 812 813 814 815 815 816 817 817 818 819 820 821 822 823 824 825 826 827 827 828 829 830 831 832 834 835 836
751 735 733 740 743 746 747 747 750 749 744 736 733 745 756 744 725 718 720 723 725 727 728 726 724 723 722 722 729 739 743 746 751 755 760 764 761 757 759 761 763 767 771 774 779 782 782 783 784 785 787 789 790 792 794 795 797 798 799 802 803 803 803 804 806 808 810 809 808 809 810 811 813 814 815 816 816 817 818 819 820 820 821 822 823 824 825 826 827 828 829 830 831 832 834 836 836
743 732 738 742 741 743 742 743 747 742 744 750 739 736 755 753 728 717 721 726 729 726 724 726 725 723 723 722 724 732 738 741 746 754 758 759 759 758 759 761 763 766 769 771 775 779 781 782 784 784 786 787 786 788 790 790 792 793 796 800 801 802 803 804 805 808 809 808 807 808 809 810 812 814 815 816 816 817 817 818 819 820 821 822 824 824 825 826 827 828 829 830 832 833 834 836 836
736 733 740 741 741 742 740 743 742 742 753 758 741 734 754 755 731 720 724 727 729 727 726 728 728 727 727 724 725 733 739 741 744 752 757 758 758 759 758 760 763 765 768 771 774 776 779 782 783 784 784 782 780 782 785 786 788 791 794 797 798 800 802 802 804 807 807 807 806 807 808 810 811 813 814 815 816 817 818 819 819 821 822 823 824 825 826 827 827 829 830 831 832 833 834 835 836
735 738 742 743 743 740 742 742 739 750 761 754 739 732 745 754 740 729 730 730 730 731 733 733 731 732 732 729 728 733 740 744 746 752 755 757 758 758 758 760 761 765 767 770 772 774 777 780 781 783 783 780 779 781 783 786 789 792 794 796 797 799 800 802 805 806 806 805 805 806 808 809 810 812 814 815 816 817 818 819 820 821 822 823 824 825 826 827 828 829 830 831 832 833 834 835 836
738 743 745 748 747 744 749 747 748 766 765 746 733 726 735 752 748 738 736 732 731 736 736 735 736 735 733 732 731 735 742 746 748 753 755 755 757 757 758 759 760 763 765 767 770 772 775 778 779 782 783 781 781 783 785 788 791 793 795 795 797 798 800 803 805 805 804 804 805 806 807 808 810 812 813 815 816 817 818 819 820 822 823 824 825 826 827 828 829 830 831 832 832 833 834 835 836
740 742 747 756 759 761 767 763 760 767 758 738 725 725 733 742 742 739 736 734 735 736 736 735 737 736 735 736 736 738 743 746 748 752 754 754 755 756 757 758 759 761 763 765 768 770 773 775 777 779 781 781 782 783 785 787 790 792 793 795 796 797 800 804 805 805 804 804 804 805 806 807 809 811 813 815 816 818 819 820 821 822 823 825 825 826 827 828 829 830 831 832 833 833 834 835 836
742 742 747 757 763 774 782 772 762 759 750 733 721 729 740 740 742 740 736 738 738 736 736 736 736 737 738 740 741 743 745 748 749 750 751 752 753 755 756 757 758 759 762 764 766 768 770 772 774 776 778 780 782 784 784 785 788 790 791 793 794 798 803 805 804 804 804 803 804 804 806 807 809 811 813 815 817 818 819 820 822 823 824 825 826 827 828 829 830 830 831 832 833 834 834 835 836
737 732 735 745 750 764 775 767 763 760 749 736 730 740 745 744 750 745 737 740 739 737 739 738 740 740 741 742 744 748 751 751 750 748 748 750 751 753 755 756 757 758 760 763 764 766 768 770 772 774 775 778 781 784 784 785 787 789 790 792 794 799 805 805 803 804 803 803 804 805 806 808 810 812 813 815 818 819 820 821 823 824 825 826 827 828 829 830 830 831 832 833 834 834 835 835 836
730 724 733 741 735 742 754 754 754 757 755 745 737 738 737 741 751 745 740 744 742 742 742 741 746 745 744 746 746 749 753 751 749 748 747 749 751 752 754 755 757 757 759 761 763 765 767 769 771 772 773 775 778 781 783 785 787 789 790 791 794 799 803 803 802 803 803 803 805 806 808 809 811 813 814 816 818 819 821 822 824 825 826 827 828 829 830 830 831 832 833 834 835 835 835 836 836
727 728 735 730 720 728 746 752 747 754 766 754 735 736 741 747 753 746 744 747 746 747 747 745 748 747 746 748 747 748 749 748 748 748 748 751 752 752 753 755 756 756 758 760 762 764 766 768 769 770 771 773 775 778 782 785 787 789 790 792 795 799 801 801 801 802 803 804 806 807 809 810 812 814 815 817 819 820 822 823 825 826 827 828 829 830 830 831 832 833 833 834 835 836 836 837 837
727 733 726 718 719 724 737 753 754 759 769 754 735 736 741 748 757 753 748 750 751 752 752 751 751 751 752 750 748 748 749 750 751 749 750 751 752 753 754 755 755 756 758 759 761 763 765 767 768 768 769 770 773 775 778 783 786 789 792 793 795 797 799 799 800 801 803 805 807 808 809 811 812 814 816 817 819 821 823 824 826 827 828 829 830 830 831 832 832 833 834 835 836 836 837 837 837
722 724 715 720 736 739 741 755 762 764 767 757 739 730 735 750 760 758 753 753 755 757 757 758 759 758 756 754 754 753 751 752 752 751 752 751 751 753 753 754 755 756 757 758 761 764 765 767 767 767 768 769 772 774 776 779 782 786 789 791 792 794 795 797 799 801 803 805 807 808 810 812 813 814 816 818 819 821 824 825 827 828 829 830 831 831 832 833 833 834 835 836 836 837 837 837 838
717 719 716 720 731 737 738 742 747 754 762 760 745 737 750 762 759 757 757 753 753 759 762 762 762 760 755 755 758 758 756 756 754 753 753 750 750 751 752 754 755 756 757 759 762 764 765 766 767 768 769 770 772 774 776 778 780 783 786 788 789 791 794 796 798 801 803 805 807 809 811 812 813 815 816 818 820 822 824 826 827 828 829 830 831 832 833 834 834 835 835 836 836 837 837 837 838
722 727 729 726 724 726 732 737 739 740 749 755 749 752 765 762 753 756 756 753 753 757 762 763 761 760 759 759 761 763 763 762 760 760 760 756 754 753 754 754 754 756 760 763 766 766 767 768 770 772 774 775 775 776 777 779 780 782 784 787 789 790 793 795 798 801 803 805 807 809 812 813 814 815 817 819 820 822 824 826 827 829 830 831 832 833 834 834 835 836 836 836 837 837 837 837 838
717 724 726 725 724 727 738 749 742 733 742 750 746 761 775 759 749 753 750 754 758 755 758 764 763 764 766 766 766 767 769 768 766 768 768 765 762 759 758 758 757 761 766 769 770 769 770 771 773 776 779 780 779 779 780 780 782 783 784 787 789 790 793 796 798 801 803 806 809 811 813 814 815 816 817 819 821 822 824 826 827 829 830 831 832 833 834 835 836 836 837 837 837 837 837 837 838